Location: Roland
(31.1349°N, 85.4372°W)
Time: 04:18:22
(UTC+00:00)

Courier 1B - Pass Details

Date: 20 April 2021
Orbit: 962 x 1209 km, 28.3° (Epoch: 07 May)

Event Time Altitude Azimuth Distance (km) Brightness Sun altitude
Rises 20:44:14 0° 269° (W) 3,656 11.3 43.5°
Reaches altitude 10° 20:46:55 10° 267° (W) 2,695 10.9 43.0°
Maximum altitude 20:53:19 67° 186° (S) 1,035 8.5 41.6°
Drops below altitude 10° 20:59:47 10° 105° (ESE) 2,712 9.5 40.3°
Sets 21:02:28 0° 103° (ESE) 3,680 10.1 39.7°
